Saga Sapphire — 9HOF8 — position and weather

sailwx.info

Track history (hours):
 
Tides and Currents Weather Stations Pressure Air Temp Water Temp Dewpoint Dewpoint Depression Visibility Wind Speed Wind Dir Waves Ship Positions

Saga Sapphire

Last reported at 2015-Aug-31 05:14 UTC. Time now 2015-Aug-31 13:12 UTC.
Position N 59°57' E 030°12'.

Length 200 m; draft 8.5 m.

Type: Passenger vessel. MMSI: 256208000.

Date/timePositionNaut miles runAvg speedWind from/ knotsBaromVisibWave heightAir tempDewpointWater temp
2015-Aug-31 05:14N 59°57' E 030°12'0 0.1
2015-Aug-31 04:33N 59°57' E 030°12'7 7.0
2015-Aug-31 03:33N 59°56' E 029°58'1010.2
2015-Aug-31 02:33N 59°60' E 029°39'8011.4
2015-Aug-30 19:33N 59°58' E 027°00'66 3.9
2015-Aug-30 02:21N 59°52' E 024°48'1215.1
2015-Aug-30 01:34N 59°45' E 024°29'1615.7
2015-Aug-30 00:34N 59°40' E 023°59'1615.8
2015-Aug-29 23:33N 59°35' E 023°29'1616.0
2015-Aug-29 22:33N 59°30' E 022°59'1615.8
2015-Aug-29 21:32N 59°24' E 022°30'1414.7
2015-Aug-29 20:33N 59°27' E 022°03'1615.8
2015-Aug-29 19:34N 59°32' E 021°33'1413.6
2015-Aug-29 18:33N 59°44' E 021°20'1111.2
2015-Aug-29 17:34N 59°54' E 021°32'1 0.0
2015-Aug-29 02:28N 59°54' E 021°33'910.3
2015-Aug-29 01:33N 59°46' E 021°21'9910.9
2015-Aug-28 16:30N 59°20' E 018°13'4 3.8
2015-Aug-28 15:26N 59°19' E 018°05'0 0.0
2015-Aug-28 14:32N 59°19' E 018°05'0 0.0
2015-Aug-28 13:32N 59°19' E 018°05'0 0.0
2015-Aug-28 12:32N 59°19' E 018°05'0 0.0
2015-Aug-28 11:32N 59°19' E 018°05'0 0.0
2015-Aug-28 10:32N 59°19' E 018°05'0 0.0
2015-Aug-28 09:26N 59°19' E 018°05'0 0.0
2015-Aug-28 08:32N 59°19' E 018°05'0 0.0
2015-Aug-28 07:29N 59°19' E 018°05'0 0.1
2015-Aug-28 06:31N 59°19' E 018°05'2 2.6
2015-Aug-28 05:33N 59°19' E 018°10'2 1.6
2015-Aug-28 04:33N 59°21' E 018°08'0 0.0
2015-Aug-28 03:33N 59°21' E 018°08'0 0.0
2015-Aug-28 02:33N 59°21' E 018°08'0 0.0
2015-Aug-28 01:33N 59°21' E 018°08'0 0.0
2015-Aug-28 00:33N 59°21' E 018°08'0 0.0
2015-Aug-27 23:33N 59°21' E 018°08'0 0.0
2015-Aug-27 22:33N 59°21' E 018°08'0 0.0
2015-Aug-27 21:33N 59°21' E 018°08'0 0.0
2015-Aug-27 20:33N 59°21' E 018°08'0 0.0
2015-Aug-27 19:33N 59°21' E 018°08'0 0.0
2015-Aug-27 18:33N 59°21' E 018°08'0 0.0
2015-Aug-27 17:33N 59°21' E 018°08'1 0.9
2015-Aug-27 16:33N 59°20' E 018°09'9 6.2
2015-Aug-27 15:06N 59°25' E 018°24'23011.5
2015-Aug-26 19:00N 55°48' E 020°48'55 3.3 170 / 81018.010.8 1.519.016.3
2015-Aug-26 02:06N 55°32' E 019°15'2616.2
2015-Aug-26 00:28N 55°26' E 018°29'1020.5
2015-Aug-26 00:00N 55°24' E 018°12'8415.5 250 / 151015.310.8 1.016.815.417.0
2015-Aug-25 18:32N 55°01' E 015°50'1615.9
2015-Aug-25 17:33N 54°57' E 015°23'1118.6
2015-Aug-25 17:00N 54°54' E 015°06'613.0 45.0 18.0
2015-Aug-25 16:33N 54°53' E 014°56'1514.6
2015-Aug-25 15:33N 54°55' E 014°31'1615.9
2015-Aug-25 14:33N 54°55' E 014°03'1616.0
2015-Aug-25 13:33N 54°53' E 013°36'3915.8
2015-Aug-25 11:04N 54°40' E 012°31'815.4
2015-Aug-25 10:33N 54°36' E 012°20'1414.1
2015-Aug-25 09:33N 54°24' E 012°06'1514.9
2015-Aug-25 08:33N 54°26' E 011°40'1515.4
2015-Aug-25 07:33N 54°33' E 011°16'1514.7
2015-Aug-25 06:33N 54°34' E 010°51'1515.2
2015-Aug-25 05:33N 54°31' E 010°26'1110.8
2015-Aug-25 04:34N 54°24' E 010°12'3 2.8
2015-Aug-25 03:34N 54°22' E 010°08'5 4.7
2015-Aug-25 02:34N 54°21' E 010°00'6 5.9
2015-Aug-25 01:34N 54°22' E 009°50'6 6.4
2015-Aug-25 00:33N 54°18' E 009°42'5 4.8
2015-Aug-24 23:30N 54°14' E 009°36'5 5.7
2015-Aug-24 22:33N 54°11' E 009°28'6 5.7
2015-Aug-24 21:32N 54°08' E 009°20'7 7.1
2015-Aug-24 20:33N 54°01' E 009°18'7 7.1
2015-Aug-24 19:33N 53°55' E 009°11'2 2.1
2015-Aug-24 18:33N 53°54' E 009°09'2 1.7
2015-Aug-24 17:33N 53°53' E 009°06'0 0.0
2015-Aug-24 16:33N 53°53' E 009°06'0 0.0
2015-Aug-24 15:33N 53°53' E 009°06'4 3.9
2015-Aug-24 14:33N 53°51' E 009°00'1212.2
2015-Aug-24 13:33N 53°55' E 008°41'1414.0
2015-Aug-24 12:33N 53°60' E 008°18'1312.7
2015-Aug-24 11:33N 53°58' E 007°56'1515.2
2015-Aug-24 10:33N 53°55' E 007°31'1515.1
2015-Aug-24 09:33N 53°51' E 007°07'1814.8
2015-Aug-24 08:18N 53°47' E 006°36'1114.7
2015-Aug-24 07:33N 53°44' E 006°18'1514.8
2015-Aug-24 06:33N 53°40' E 005°54'1514.9
2015-Aug-24 05:33N 53°34' E 005°31'1514.6
2015-Aug-24 04:33N 53°30' E 005°07'1515.1
2015-Aug-24 03:33N 53°25' E 004°43'1514.7
2015-Aug-24 02:33N 53°11' E 004°32'1615.7
2015-Aug-24 01:32N 52°58' E 004°19'1615.9
2015-Aug-24 00:32N 52°44' E 004°06'2216.0
2015-Aug-23 23:10N 52°28' E 003°40'6616.7
2015-Aug-23 19:14N 51°40' E 002°27'1217.3
2015-Aug-23 18:34N 51°32' E 002°15'1717.4
2015-Aug-23 17:34N 51°18' E 001°56'1717.3
2015-Aug-23 16:33N 51°05' E 001°39'1110.7
2015-Aug-23 15:33N 51°06' E 001°22'2 0.2
2015-Aug-23 07:33N 51°07' E 001°19'0 0.1
2015-Aug-23 06:31N 51°07' E 001°19'5 5.6
2015-Aug-23 05:34N 51°08' E 001°28'8 7.9
2015-Aug-23 04:34N 51°11' E 001°39'10 9.5
2015-Aug-23 03:34N 51°18' E 001°49'610.6
2015-Aug-23 03:00N 51°24' E 001°48'512.4 140 / 201007.010.8 1.519.614.118.0
2015-Aug-23 02:33N 51°27' E 001°55'1110.9
2015-Aug-23 01:34N 51°35' E 002°07'1111.2
2015-Aug-23 00:34N 51°43' E 002°19'1110.8
2015-Aug-22 23:34N 51°51' E 002°31'1111.0
2015-Aug-22 22:33N 52°02' E 002°37'1110.4
2015-Aug-22 21:32N 52°12' E 002°39'10 9.7
2015-Aug-22 20:29N 52°21' E 002°46'4 8.7
2015-Aug-22 20:00N 52°18' E 002°42'36 9.3 090 / 271014.127.0 1.020.217.4
2015-Aug-22 16:10N 52°53' E 002°55'6 9.0
2015-Aug-22 15:34N 52°56' E 002°47'9 9.4
2015-Aug-22 14:34N 53°00' E 002°33'10 9.8
2015-Aug-22 13:34N 53°07' E 002°21'1010.3
2015-Aug-22 12:34N 53°15' E 002°10'1010.4
2015-Aug-22 11:34N 53°22' E 001°57'1010.3
2015-Aug-22 10:34N 53°30' E 001°47'2210.2
2015-Aug-22 08:24N 53°46' E 001°21'20 9.8
2015-Aug-22 06:23N 53°59' E 000°56'8 9.5
2015-Aug-22 05:34N 54°04' E 000°45'9 9.3
2015-Aug-22 04:34N 54°09' E 000°33'9 9.1
2015-Aug-22 03:33N 54°15' E 000°20'9 8.8
2015-Aug-22 02:34N 54°20' E 000°09'9 9.0
2015-Aug-22 01:33N 54°26' W 000°03'9 9.1
2015-Aug-22 00:34N 54°32' W 000°16'9 9.2
2015-Aug-21 23:34N 54°37' W 000°28'10 9.7
2015-Aug-21 22:33N 54°43' W 000°41'10 9.8
2015-Aug-21 21:34N 54°49' W 000°55'1010.0
2015-Aug-21 20:33N 54°56' W 001°08'10 9.8
2015-Aug-21 19:33N 55°01' W 001°23'  
Track history (hours):
 
Tides and Currents Weather Stations Pressure Air Temp Water Temp Dewpoint Dewpoint Depression Visibility Wind Speed Wind Dir Waves Ship Positions

Saga Sapphire

Last reported at 2015-Aug-31 05:14 UTC. Time now 2015-Aug-31 13:12 UTC.
Position N 59°57' E 030°12'.

Length 200 m; draft 8.5 m.

Type: Passenger vessel. MMSI: 256208000.

Date/timePositionNaut miles runAvg speedWind from/ knotsBaromVisibWave heightAir tempDewpointWater temp
2015-Aug-31 05:14N 59°57' E 030°12'0 0.1
2015-Aug-31 04:33N 59°57' E 030°12'7 7.0
2015-Aug-31 03:33N 59°56' E 029°58'1010.2
2015-Aug-31 02:33N 59°60' E 029°39'8011.4
2015-Aug-30 19:33N 59°58' E 027°00'66 3.9
2015-Aug-30 02:21N 59°52' E 024°48'1215.1
2015-Aug-30 01:34N 59°45' E 024°29'1615.7
2015-Aug-30 00:34N 59°40' E 023°59'1615.8
2015-Aug-29 23:33N 59°35' E 023°29'1616.0
2015-Aug-29 22:33N 59°30' E 022°59'1615.8
2015-Aug-29 21:32N 59°24' E 022°30'1414.7
2015-Aug-29 20:33N 59°27' E 022°03'1615.8
2015-Aug-29 19:34N 59°32' E 021°33'1413.6
2015-Aug-29 18:33N 59°44' E 021°20'1111.2
2015-Aug-29 17:34N 59°54' E 021°32'1 0.0
2015-Aug-29 02:28N 59°54' E 021°33'910.3
2015-Aug-29 01:33N 59°46' E 021°21'9910.9
2015-Aug-28 16:30N 59°20' E 018°13'4 3.8
2015-Aug-28 15:26N 59°19' E 018°05'0 0.0
2015-Aug-28 14:32N 59°19' E 018°05'0 0.0
2015-Aug-28 13:32N 59°19' E 018°05'0 0.0
2015-Aug-28 12:32N 59°19' E 018°05'0 0.0
2015-Aug-28 11:32N 59°19' E 018°05'0 0.0
2015-Aug-28 10:32N 59°19' E 018°05'0 0.0
2015-Aug-28 09:26N 59°19' E 018°05'0 0.0
2015-Aug-28 08:32N 59°19' E 018°05'0 0.0
2015-Aug-28 07:29N 59°19' E 018°05'0 0.1
2015-Aug-28 06:31N 59°19' E 018°05'2 2.6
2015-Aug-28 05:33N 59°19' E 018°10'2 1.6
2015-Aug-28 04:33N 59°21' E 018°08'0 0.0
2015-Aug-28 03:33N 59°21' E 018°08'0 0.0
2015-Aug-28 02:33N 59°21' E 018°08'0 0.0
2015-Aug-28 01:33N 59°21' E 018°08'0 0.0
2015-Aug-28 00:33N 59°21' E 018°08'0 0.0
2015-Aug-27 23:33N 59°21' E 018°08'0 0.0
2015-Aug-27 22:33N 59°21' E 018°08'0 0.0
2015-Aug-27 21:33N 59°21' E 018°08'0 0.0
2015-Aug-27 20:33N 59°21' E 018°08'0 0.0
2015-Aug-27 19:33N 59°21' E 018°08'0 0.0
2015-Aug-27 18:33N 59°21' E 018°08'0 0.0
2015-Aug-27 17:33N 59°21' E 018°08'1 0.9
2015-Aug-27 16:33N 59°20' E 018°09'9 6.2
2015-Aug-27 15:06N 59°25' E 018°24'23011.5
2015-Aug-26 19:00N 55°48' E 020°48'55 3.3 170 / 81018.010.8 1.519.016.3
2015-Aug-26 02:06N 55°32' E 019°15'2616.2
2015-Aug-26 00:28N 55°26' E 018°29'1020.5
2015-Aug-26 00:00N 55°24' E 018°12'8415.5 250 / 151015.310.8 1.016.815.417.0
2015-Aug-25 18:32N 55°01' E 015°50'1615.9
2015-Aug-25 17:33N 54°57' E 015°23'1118.6
2015-Aug-25 17:00N 54°54' E 015°06'613.0 45.0 18.0
2015-Aug-25 16:33N 54°53' E 014°56'1514.6
2015-Aug-25 15:33N 54°55' E 014°31'1615.9
2015-Aug-25 14:33N 54°55' E 014°03'1616.0
2015-Aug-25 13:33N 54°53' E 013°36'3915.8
2015-Aug-25 11:04N 54°40' E 012°31'815.4
2015-Aug-25 10:33N 54°36' E 012°20'1414.1
2015-Aug-25 09:33N 54°24' E 012°06'1514.9
2015-Aug-25 08:33N 54°26' E 011°40'1515.4
2015-Aug-25 07:33N 54°33' E 011°16'1514.7
2015-Aug-25 06:33N 54°34' E 010°51'1515.2
2015-Aug-25 05:33N 54°31' E 010°26'1110.8
2015-Aug-25 04:34N 54°24' E 010°12'3 2.8
2015-Aug-25 03:34N 54°22' E 010°08'5 4.7
2015-Aug-25 02:34N 54°21' E 010°00'6 5.9
2015-Aug-25 01:34N 54°22' E 009°50'6 6.4
2015-Aug-25 00:33N 54°18' E 009°42'5 4.8
2015-Aug-24 23:30N 54°14' E 009°36'5 5.7
2015-Aug-24 22:33N 54°11' E 009°28'6 5.7
2015-Aug-24 21:32N 54°08' E 009°20'7 7.1
2015-Aug-24 20:33N 54°01' E 009°18'7 7.1
2015-Aug-24 19:33N 53°55' E 009°11'2 2.1
2015-Aug-24 18:33N 53°54' E 009°09'2 1.7
2015-Aug-24 17:33N 53°53' E 009°06'0 0.0
2015-Aug-24 16:33N 53°53' E 009°06'0 0.0
2015-Aug-24 15:33N 53°53' E 009°06'4 3.9
2015-Aug-24 14:33N 53°51' E 009°00'1212.2
2015-Aug-24 13:33N 53°55' E 008°41'1414.0
2015-Aug-24 12:33N 53°60' E 008°18'1312.7
2015-Aug-24 11:33N 53°58' E 007°56'1515.2
2015-Aug-24 10:33N 53°55' E 007°31'1515.1
2015-Aug-24 09:33N 53°51' E 007°07'1814.8
2015-Aug-24 08:18N 53°47' E 006°36'1114.7
2015-Aug-24 07:33N 53°44' E 006°18'1514.8
2015-Aug-24 06:33N 53°40' E 005°54'1514.9
2015-Aug-24 05:33N 53°34' E 005°31'1514.6
2015-Aug-24 04:33N 53°30' E 005°07'1515.1
2015-Aug-24 03:33N 53°25' E 004°43'1514.7
2015-Aug-24 02:33N 53°11' E 004°32'1615.7
2015-Aug-24 01:32N 52°58' E 004°19'1615.9
2015-Aug-24 00:32N 52°44' E 004°06'2216.0
2015-Aug-23 23:10N 52°28' E 003°40'6616.7
2015-Aug-23 19:14N 51°40' E 002°27'1217.3
2015-Aug-23 18:34N 51°32' E 002°15'1717.4
2015-Aug-23 17:34N 51°18' E 001°56'1717.3
2015-Aug-23 16:33N 51°05' E 001°39'1110.7
2015-Aug-23 15:33N 51°06' E 001°22'2 0.2
2015-Aug-23 07:33N 51°07' E 001°19'0 0.1
2015-Aug-23 06:31N 51°07' E 001°19'5 5.6
2015-Aug-23 05:34N 51°08' E 001°28'8 7.9
2015-Aug-23 04:34N 51°11' E 001°39'10 9.5
2015-Aug-23 03:34N 51°18' E 001°49'610.6
2015-Aug-23 03:00N 51°24' E 001°48'512.4 140 / 201007.010.8 1.519.614.118.0
2015-Aug-23 02:33N 51°27' E 001°55'1110.9
2015-Aug-23 01:34N 51°35' E 002°07'1111.2
2015-Aug-23 00:34N 51°43' E 002°19'1110.8
2015-Aug-22 23:34N 51°51' E 002°31'1111.0
2015-Aug-22 22:33N 52°02' E 002°37'1110.4
2015-Aug-22 21:32N 52°12' E 002°39'10 9.7
2015-Aug-22 20:29N 52°21' E 002°46'4 8.7
2015-Aug-22 20:00N 52°18' E 002°42'36 9.3 090 / 271014.127.0 1.020.217.4
2015-Aug-22 16:10N 52°53' E 002°55'6 9.0
2015-Aug-22 15:34N 52°56' E 002°47'9 9.4
2015-Aug-22 14:34N 53°00' E 002°33'10 9.8
2015-Aug-22 13:34N 53°07' E 002°21'1010.3
2015-Aug-22 12:34N 53°15' E 002°10'1010.4
2015-Aug-22 11:34N 53°22' E 001°57'1010.3
2015-Aug-22 10:34N 53°30' E 001°47'2210.2
2015-Aug-22 08:24N 53°46' E 001°21'20 9.8
2015-Aug-22 06:23N 53°59' E 000°56'8 9.5
2015-Aug-22 05:34N 54°04' E 000°45'9 9.3
2015-Aug-22 04:34N 54°09' E 000°33'9 9.1
2015-Aug-22 03:33N 54°15' E 000°20'9 8.8
2015-Aug-22 02:34N 54°20' E 000°09'9 9.0
2015-Aug-22 01:33N 54°26' W 000°03'9 9.1
2015-Aug-22 00:34N 54°32' W 000°16'9 9.2
2015-Aug-21 23:34N 54°37' W 000°28'10 9.7
2015-Aug-21 22:33N 54°43' W 000°41'10 9.8
2015-Aug-21 21:34N 54°49' W 000°55'1010.0
2015-Aug-21 20:33N 54°56' W 001°08'10 9.8
2015-Aug-21 19:33N 55°01' W 001°23'  

Dump ship's entire track history